GW3733 Weather Reports


time (UTC)temp
C
wind
direction
speed
KPH
gust
KPH
rain 1hr
cm
rain 24hr
cm
rain mn
cm
humidity
%
barometer
mb
20260906163815 24 13 0.0 0.0 0.00 0.00 0.00 68 1012.8
20260906163312 25 11 0.0 0.0 0.00 0.00 0.00 63 1012.7
20260906162809 25 292 1.6 3.2 0.00 0.00 0.00 67 1013.1
20260906162308 24 26 0.0 0.0 0.00 0.00 0.00 68 1012.7
20260906161803 24 27 1.6 1.6 0.00 0.00 0.00 69 1012.9
20260906161302 25 87 6.4 6.4 0.00 0.00 0.00 67 1013.0
20260906160801 25 310 1.6 1.6 0.00 0.00 0.00 67 1012.7
20260906160256 24 342 1.6 1.6 0.00 0.00 0.00 71 1013.0
20260906155753 24 44 1.6 3.2 0.00 0.00 0.00 69 1012.8
20260906155248 24 339 1.6 1.6 0.00 0.00 0.00 75 1013.1
20260906154744 23 350 0.0 0.0 0.00 0.00 0.00 72 1012.7
20260906154239 24 23 0.0 0.0 0.00 0.00 0.00 76 1013.0
20260906153737 23 5 3.2 3.2 0.00 0.00 0.00 71 1013.1
20260906153231 23 295 3.2 3.2 0.00 0.00 0.00 71 1012.9
20260906152726 23 335 0.0 1.6 0.00 0.00 0.00 73 1013.0
20260906152221 23 348 0.0 1.6 0.00 0.00 0.00 77 1013.1
20260906151715 23 9 0.0 0.0 0.00 0.00 0.00 77 1012.9
20260906151211 24 7 0.0 0.0 0.00 0.00 0.00 72 1012.9
20260906150707 23 7 0.0 0.0 0.00 0.00 0.00 81 1013.1
20260906150201 22 1 0.0 0.0 0.00 0.00 0.00 77 1012.9
20260906145700 22 0 0.0 0.0 0.00 0.00 0.00 78 1013.1
20260906145154 22 1 0.0 0.0 0.00 0.00 0.00 78 1012.7
20260906144654 23 7 0.0 1.6 0.00 0.00 0.00 82 1012.9
20260906144149 22 1 1.6 1.6 0.00 0.00 0.00 81 1012.8
20260906143649 23 7 0.0 1.6 0.00 0.00 0.00 77 1012.7
20260906143146 22 7 0.0 0.0 0.00 0.00 0.00 85 1012.9
20260906142646 22 8 0.0 0.0 0.00 0.00 0.00 85 1013.0
20260906142141 22 7 0.0 1.6 0.00 0.00 0.00 81 1012.9
20260906141639 21 5 0.0 1.6 0.00 0.00 0.00 82 1012.8
20260906141135 21 5 0.0 0.0 0.00 0.00 0.00 89 1012.8
20260906140634 22 5 0.0 1.6 0.00 0.00 0.00 90 1012.9
20260906140129 20 6 0.0 0.0 0.00 0.00 0.00 90 1012.8
20260906135626 20 5 0.0 0.0 0.00 0.00 0.00 93 1012.8
20260906135122 20 6 0.0 0.0 0.00 0.00 0.00 95 1012.7
20260906134618 18 6 0.0 1.6 0.00 0.00 0.00 94 1012.8
20260906134113 18 5 0.0 0.0 0.00 0.00 0.00 99 1012.7
20260906133608 18 4 1.6 1.6 0.00 0.00 0.00 99 1012.8
20260906133103 18 4 0.0 0.0 0.00 0.00 0.00 99 1012.8
20260906132558 18 4 0.0 0.0 0.00 0.00 0.00 99 1012.7
20260906132054 18 4 0.0 0.0 0.00 0.00 0.00 99 1012.7
20260906131549 18 1 0.0 0.0 0.00 0.00 0.00 99 1012.7
20260906131044 17 1 0.0 0.0 0.00 0.00 0.00 99 1012.8
20260906130544 16 0 0.0 0.0 0.00 0.00 0.00 99 1012.8
20260906130039 16 0 0.0 0.0 0.00 0.00 0.00 99 1012.7
20260906125536 16 0 0.0 0.0 0.00 0.00 0.00 99 1012.7
20260906125031 16 0 0.0 0.0 0.00 0.00 0.00 99 1012.9
20260906124526 16 0 0.0 0.0 0.00 0.00 0.00 99 1012.6
20260906124021 16 0 0.0 0.0 0.00 0.00 0.00 99 1012.8
20260906123520 16 0 0.0 0.0 0.00 0.00 0.00 99 1012.7
20260906123015 16 0 0.0 0.0 0.00 0.00 0.00 99 1012.3
20260906122509 16 3 0.0 0.0 0.00 0.00 0.00 99 1012.6
20260906122006 16 4 0.0 0.0 0.00 0.00 0.00 99 1012.6
20260906121501 16 4 0.0 0.0 0.00 0.00 0.00 99 1012.2
20260906120958 16 3 0.0 0.0 0.00 0.00 0.00 99 1012.2
20260906120453 16 4 0.0 0.0 0.00 0.00 0.00 99 1011.9
20260906115949 16 4 0.0 0.0 0.00 0.00 0.00 99 1012.1
20260906115444 16 4 0.0 0.0 0.00 0.00 0.00 99 1011.9
20260906114944 16 4 0.0 0.0 0.00 0.00 0.00 99 1012.1
20260906114439 16 4 0.0 0.0 0.00 0.00 0.00 99 1011.8
20260906113935 16 4 0.0 0.0 0.00 0.00 0.00 99 1011.9
20260906113433 16 4 0.0 0.0 0.00 0.00 0.00 99 1011.9
20260906112929 16 4 0.0 0.0 0.00 0.00 0.00 99 1011.6
20260906112424 16 3 0.0 0.0 0.00 0.00 0.00 99 1011.5
20260906111920 16 3 0.0 0.0 0.00 0.00 0.00 99 1011.5
20260906111419 16 3 0.0 0.0 0.00 0.00 0.00 99 1011.4
20260906110914 16 3 0.0 0.0 0.00 0.00 0.00 99 1011.3
20260906110410 16 3 0.0 0.0 0.00 0.00 0.00 99 1011.4
20260906105909 16 3 0.0 0.0 0.00 0.00 0.00 99 1011.4
20260906105405 16 3 0.0 0.0 0.00 0.00 0.00 99 1011.4
20260906104901 16 3 0.0 0.0 0.00 0.00 0.00 99 1011.3
20260906104359 16 3 0.0 0.0 0.00 0.00 0.00 99 1011.2
20260906103858 16 3 0.0 0.0 0.00 0.00 0.00 99 1011.3
20260906103356 16 3 0.0 0.0 0.00 0.00 0.00 99 1011.3
20260906102852 16 3 0.0 0.0 0.00 0.00 0.00 99 1011.1
20260906102351 16 3 0.0 0.0 0.00 0.00 0.00 99 1011.0
20260906101846 16 3 0.0 0.0 0.00 0.00 0.00 99 1011.2
20260906101341 16 3 0.0 0.0 0.00 0.00 0.00 99 1010.9
20260906100837 16 3 0.0 0.0 0.00 0.00 0.00 99 1010.9
20260906100336 16 3 0.0 0.0 0.00 0.00 0.00 99 1010.8
20260906095831 16 3 0.0 0.0 0.00 0.00 0.00 99 1010.9
20260906095327 16 3 0.0 0.0 0.00 0.00 0.00 99 1010.8
20260906094826 16 3 0.0 0.0 0.00 0.00 0.00 99 1010.6
20260906094321 16 3 0.0 0.0 0.00 0.00 0.00 99 1010.9
20260906093817 17 3 0.0 0.0 0.00 0.00 0.00 99 1010.6
20260906093313 17 3 0.0 0.0 0.00 0.00 0.00 99 1011.0
20260906092807 16 3 0.0 0.0 0.00 0.00 0.00 99 1010.9
20260906092305 17 3 0.0 0.0 0.00 0.00 0.00 99 1010.5
20260906091757 17 3 0.0 0.0 0.00 0.00 0.00 99 1010.8
20260906091253 17 3 0.0 0.0 0.00 0.00 0.00 99 1010.6
20260906090750 17 3 0.0 0.0 0.00 0.00 0.00 99 1010.6
20260906090248 17 3 0.0 0.0 0.00 0.00 0.00 99 1010.4
20260906085748 17 3 0.0 0.0 0.00 0.00 0.00 99 1010.6
20260906085248 17 3 0.0 0.0 0.00 0.00 0.00 99 1010.5
20260906084742 17 3 0.0 0.0 0.00 0.00 0.00 99 1010.2
20260906084236 17 3 0.0 0.0 0.00 0.00 0.00 99 1010.2
20260906083732 17 3 0.0 0.0 0.00 0.00 0.00 99 1010.3
20260906083227 17 3 0.0 0.0 0.00 0.00 0.00 99 1010.4
20260906082722 17 3 0.0 0.0 0.00 0.00 0.00 99 1010.4
20260906082217 17 3 0.0 0.0 0.00 0.00 0.00 99 1010.4
20260906081713 17 3 0.0 0.0 0.00 0.00 0.00 99 1010.3
20260906081208 17 3 0.0 0.0 0.00 0.00 0.00 99 1010.4
20260906080704 17 3 0.0 0.0 0.00 0.00 0.00 99 1010.1
20260906080200 17 3 0.0 0.0 0.00 0.00 0.00 99 1009.9
20260906075659 17 3 0.0 0.0 0.00 0.00 0.00 99 1010.0
20260906075148 17 3 0.0 0.0 0.00 0.00 0.00 99 1010.1
20260906074643 17 3 0.0 0.0 0.00 0.00 0.00 99 1010.0
20260906074142 17 3 0.0 0.0 0.00 0.00 0.00 99 1010.1
20260906073637 17 3 0.0 0.0 0.00 0.00 0.00 99 1010.3
20260906073133 17 3 0.0 0.0 0.00 0.00 0.00 99 1010.3
20260906072628 18 3 0.0 0.0 0.00 0.00 0.00 99 1010.0
20260906072124 18 3 0.0 0.0 0.00 0.00 0.00 99 1009.9
20260906071615 18 3 0.0 0.0 0.00 0.00 0.00 99 1010.0
20260906071114 18 3 0.0 0.0 0.00 0.00 0.00 99 1010.0
20260906070611 18 3 0.0 0.0 0.00 0.00 0.00 99 1009.8
20260906070106 18 3 0.0 0.0 0.00 0.00 0.00 99 1010.0
20260906065606 18 3 0.0 0.0 0.00 0.00 0.00 99 1009.8
20260906065101 18 3 0.0 0.0 0.00 0.00 0.00 99 1010.0
20260906064557 18 3 0.0 0.0 0.00 0.00 0.00 99 1010.2
20260906064047 18 3 0.0 0.0 0.00 0.00 0.00 99 1009.9
20260906063542 18 3 0.0 0.0 0.00 0.00 0.00 99 1010.0
20260906063038 18 3 0.0 0.0 0.00 0.00 0.00 99 1010.0
20260906062533 18 3 0.0 0.0 0.00 0.00 0.00 99 1010.0
20260906062027 18 3 0.0 0.0 0.00 0.00 0.00 99 1010.2
20260906061524 18 3 0.0 0.0 0.00 0.00 0.00 99 1010.1
20260906061022 18 3 0.0 0.0 0.00 0.00 0.00 99 1010.1
20260906060520 18 3 0.0 0.0 0.00 0.00 0.00 99 1010.3
20260906060016 18 3 0.0 0.0 0.00 0.00 0.00 99 1010.1
20260906055511 18 3 0.0 0.0 0.00 0.00 0.00 99 1010.0
20260906055006 18 3 0.0 0.0 0.00 0.00 0.00 99 1009.9
20260906054501 18 3 0.0 0.0 0.00 0.00 0.00 99 1009.8
20260906053956 18 3 0.0 0.0 0.00 0.00 0.00 99 1009.9
20260906053452 18 3 0.0 0.0 0.00 0.00 0.00 99 1010.1
20260906052943 18 3 0.0 0.0 0.00 0.00 0.00 99 1010.1
20260906052438 18 3 0.0 0.0 0.00 0.00 0.00 99 1010.0
20260906051935 18 3 0.0 0.0 0.00 0.00 0.00 99 1010.0
20260906051430 18 3 0.0 0.0 0.00 0.00 0.00 99 1009.6
20260906050926 18 3 0.0 0.0 0.00 0.00 0.00 99 1010.0
20260906050425 18 3 0.0 0.0 0.00 0.00 0.00 99 1009.9
20260906045925 18 3 0.0 0.0 0.00 0.00 0.00 99 1009.9
20260906045423 19 3 0.0 0.0 0.00 0.00 0.00 99 1009.9
20260906044919 19 3 0.0 0.0 0.00 0.00 0.00 99 1009.9
20260906044414 19 3 0.0 0.0 0.00 0.00 0.00 99 1009.9
20260906043910 19 3 0.0 0.0 0.00 0.00 0.00 99 1010.3
20260906043406 19 3 0.0 0.0 0.00 0.00 0.00 99 1010.0
20260906042901 19 3 0.0 0.0 0.00 0.00 0.00 99 1010.1
20260906042400 19 3 0.0 0.0 0.00 0.00 0.00 99 1010.2
20260906041855 19 3 0.0 0.0 0.00 0.00 0.00 99 1010.2
20260906041351 19 3 0.0 0.0 0.00 0.00 0.00 99 1010.2
20260906040850 20 3 0.0 1.6 0.00 0.00 0.00 99 1010.2
20260906040346 20 2 0.0 0.0 0.00 0.00 0.00 99 1010.3
20260906035841 20 2 0.0 0.0 0.00 0.76 0.76 99 1010.3
20260906035336 20 2 0.0 0.0 0.00 0.76 0.76 99 1010.5
20260906034832 20 2 0.0 0.0 0.00 0.76 0.76 99 1010.2
20260906034327 20 2 0.0 0.0 0.00 0.76 0.76 99 1010.4
20260906033823 20 2 0.0 0.0 0.00 0.76 0.76 99 1010.5
20260906033322 20 2 0.0 0.0 0.00 0.76 0.76 99 1010.4
20260906032819 20 2 0.0 0.0 0.00 0.76 0.76 99 1010.8
20260906032314 20 2 0.0 0.0 0.00 0.76 0.76 99 1010.5
20260906031809 20 2 0.0 0.0 0.00 0.76 0.76 99 1010.4
20260906031305 20 2 0.0 0.0 0.00 0.76 0.76 99 1010.4
20260906030804 20 2 0.0 0.0 0.00 0.76 0.76 99 1010.3
20260906030300 20 2 0.0 0.0 0.00 0.76 0.76 99 1010.3
20260906025759 20 2 0.0 0.0 0.00 0.76 0.76 99 1010.3
20260906025254 20 2 0.0 0.0 0.00 0.76 0.76 99 1010.1
20260906024752 20 2 0.0 0.0 0.00 0.76 0.76 99 1010.3
20260906024251 20 2 0.0 0.0 0.00 0.76 0.76 99 1010.0
20260906023747 20 2 0.0 0.0 0.00 0.76 0.76 99 1010.1
20260906023242 20 2 0.0 0.0 0.00 0.76 0.76 99 1010.2
20260906022738 20 2 0.0 0.0 0.00 0.76 0.76 99 1010.1
20260906022232 20 2 0.0 0.0 0.00 0.76 0.76 99 1010.0
20260906021729 20 2 0.0 0.0 0.00 0.76 0.76 99 1009.7
20260906021227 20 2 0.0 0.0 0.00 0.76 0.76 99 1010.0
20260906020722 20 2 0.0 0.0 0.00 0.76 0.76 99 1009.7
20260906020218 20 2 0.0 0.0 0.00 0.76 0.76 99 1009.6
20260906015717 20 2 0.0 0.0 0.00 0.76 0.76 99 1009.9
20260906015210 20 3 0.0 0.0 0.00 0.76 0.76 99 1009.6
20260906014710 20 3 0.0 0.0 0.00 0.76 0.76 99 1009.7
20260906014206 20 3 0.0 0.0 0.00 0.76 0.76 99 1009.6
20260906013656 20 3 0.0 0.0 0.00 0.76 0.76 99 1009.6
20260906013152 20 3 0.0 0.0 0.00 0.76 0.76 99 1009.4
20260906012651 20 3 0.0 0.0 0.00 0.76 0.76 99 1009.6
20260906012146 20 3 0.0 0.0 0.00 0.76 0.76 99 1009.4
20260906011642 20 3 0.0 0.0 0.00 0.76 0.76 99 1009.4
20260906011142 20 4 0.0 0.0 0.00 0.76 0.76 99 1009.4
20260906010637 20 3 0.0 0.0 0.00 0.76 0.76 99 1009.2
20260906010133 20 4 0.0 0.0 0.00 0.76 0.76 99 1009.3
20260906005632 20 4 0.0 0.0 0.00 0.76 0.76 99 1009.1
20260906005127 20 4 0.0 0.0 0.00 0.76 0.76 99 1009.0
20260906004626 20 4 0.0 0.0 0.00 0.76 0.76 99 1009.1
20260906004121 20 4 0.0 0.0 0.00 0.76 0.76 99 1008.9
20260906003616 20 4 0.0 0.0 0.00 0.76 0.76 99 1008.9
20260906003112 20 4 0.0 0.0 0.00 0.76 0.76 99 1009.0
20260906002607 20 4 0.0 0.0 0.00 0.76 0.76 99 1008.9
20260906002101 20 4 0.0 0.0 0.00 0.76 0.76 99 1008.8
20260906001556 20 4 0.0 0.0 0.00 0.76 0.76 99 1008.6
20260906001051 20 4 0.0 0.0 0.00 0.76 0.76 99 1008.9
20260906000548 20 4 0.0 0.0 0.00 0.76 0.76 99 1008.9
20260906000042 20 4 0.0 0.0 0.00 0.76 0.76 99 1008.8
20260905235536 20 4 0.0 0.0 0.00 0.76 0.76 99 1008.6
20260905235031 20 4 0.0 0.0 0.00 0.76 0.76 99 1008.6
20260905234527 21 4 0.0 0.0 0.00 0.76 0.76 99 1008.6
20260905234027 21 4 0.0 0.0 0.00 0.76 0.76 99 1008.6
20260905233522 21 4 0.0 0.0 0.00 0.76 0.76 99 1008.9
20260905233021 21 4 0.0 0.0 0.00 0.76 0.76 99 1008.9
20260905232517 21 4 0.0 0.0 0.00 0.76 0.76 99 1008.8
20260905232013 21 4 0.0 0.0 0.00 0.76 0.76 99 1008.9
20260905231507 21 4 0.0 0.0 0.00 0.76 0.76 99 1008.7
20260905231004 21 4 0.0 0.0 0.00 0.76 0.76 99 1008.8
20260905230502 21 4 0.0 0.0 0.00 0.76 0.76 99 1008.6
20260905230001 21 4 0.0 0.0 0.00 0.76 0.76 99 1008.6
20260905225455 21 4 0.0 0.0 0.00 0.76 0.76 99 1008.5
20260905224950 21 4 0.0 0.0 0.00 0.76 0.76 99 1008.5
20260905224446 22 4 0.0 0.0 0.00 0.76 0.76 99 1008.7
20260905223945 22 4 0.0 0.0 0.00 0.76 0.76 99 1008.6
20260905223443 22 4 0.0 0.0 0.00 0.76 0.76 99 1008.7
20260905222943 21 4 0.0 0.0 0.00 0.76 0.76 99 1008.6
20260905222438 22 4 0.0 0.0 0.00 0.76 0.76 99 1008.6
20260905221934 22 4 0.0 0.0 0.00 0.76 0.76 99 1008.6
20260905221430 22 4 0.0 0.0 0.00 0.76 0.76 99 1008.4
20260905220926 22 4 0.0 0.0 0.00 0.76 0.76 99 1008.5
20260905220422 22 4 0.0 0.0 0.00 0.76 0.76 99 1008.5
20260905215921 22 4 0.0 0.0 0.00 0.76 0.76 99 1008.2
20260905215416 21 4 0.0 0.0 0.00 0.76 0.76 97 1008.6
20260905214913 22 4 0.0 0.0 0.00 0.76 0.76 99 1008.3
20260905214408 21 4 0.0 0.0 0.00 0.76 0.76 99 1008.2
20260905213902 22 5 0.0 1.6 0.00 0.76 0.76 99 1008.3
20260905213359 21 0 0.0 0.0 0.00 0.76 0.76 99 1008.4
20260905212854 21 0 0.0 0.0 0.00 0.76 0.76 99 1008.1
20260905212354 21 359 0.0 0.0 0.00 0.76 0.76 99 1008.1
20260905211848 21 0 0.0 0.0 0.00 0.76 0.76 99 1008.0
20260905211343 21 342 1.6 1.6 0.00 0.76 0.76 99 1008.1
20260905210839 21 342 0.0 0.0 0.00 0.76 0.76 99 1008.1
20260905210334 21 342 0.0 0.0 0.00 0.76 0.76 99 1007.6
20260905205832 22 355 0.0 0.0 0.00 0.76 0.76 98 1007.6
20260905205327 22 352 0.0 0.0 0.48 0.76 0.76 97 1007.6
20260905204826 22 352 0.0 0.0 0.61 0.76 0.76 97 1007.8
20260905204322 22 354 1.6 1.6 0.30 0.71 0.71 96 1007.9
20260905203821 22 6 0.0 0.0 0.00 0.66 0.66 96 1007.9
20260905203317 23 355 0.0 0.0 0.00 0.66 0.66 94 1008.1
20260905202812 23 359 0.0 0.0 0.00 0.66 0.66 92 1008.0
20260905202307 24 316 3.2 3.2 0.00 0.66 0.66 88 1007.9
20260905201757 25 12 1.6 3.2 0.00 0.66 0.66 84 1007.8
20260905201252 26 356 0.0 0.0 0.00 0.66 0.66 84 1008.0
20260905200747 25 347 0.0 0.0 0.00 0.66 0.66 88 1008.1
20260905200243 26 309 3.2 3.2 0.00 0.66 0.66 86 1007.9
20260905195741 26 321 3.2 3.2 0.00 0.66 0.66 81 1007.8
20260905195236 26 334 0.0 0.0 0.00 0.66 0.66 86 1008.0
20260905194732 26 334 1.6 1.6 0.00 0.66 0.66 80 1008.0
20260905194231 27 17 0.0 1.6 0.00 0.66 0.66 81 1007.8
20260905193725 27 355 0.0 0.0 0.00 0.66 0.66 82 1007.8
20260905193220 27 340 1.6 1.6 0.00 0.66 0.66 80 1007.6
20260905192716 26 325 1.6 1.6 0.00 0.66 0.66 87 1007.6
20260905192213 25 1 0.0 0.0 0.00 0.66 0.66 88 1008.1
20260905191712 25 343 0.0 0.0 0.00 0.66 0.66 84 1008.1
20260905191210 27 14 0.0 1.6 0.00 0.66 0.66 78 1008.2
20260905190709 26 6 0.0 0.0 0.00 0.66 0.66 85 1008.0
20260905190208 25 330 0.0 1.6 0.00 0.66 0.66 90 1008.1
20260905185706 25 329 1.6 1.6 0.00 0.66 0.66 87 1008.4
20260905185201 26 342 0.0 1.6 0.00 0.66 0.66 84 1008.5
20260905184700 26 359 0.0 0.0 0.00 0.66 0.66 82 1008.4
20260905184159 26 353 0.0 1.6 0.00 0.66 0.66 84 1008.5
20260905183654 25 344 0.0 0.0 0.00 0.66 0.66 86 1008.6
20260905183149 25 25 0.0 1.6 0.00 0.66 0.66 85 1008.6
20260905182648 25 18 0.0 0.0 0.00 0.66 0.66 92 1008.6
20260905182143 25 12 0.0 0.0 0.00 0.66 0.66 89 1008.7
20260905181638 25 25 1.6 1.6 0.00 0.66 0.66 86 1008.9
20260905181137 24 344 0.0 0.0 0.00 0.66 0.66 93 1008.9
20260905180632 25 345 1.6 1.6 0.00 0.66 0.66 92 1009.1
20260905180127 25 15 0.0 0.0 0.00 0.66 0.66 94 1009.0
20260905175626 24 5 0.0 0.0 0.00 0.66 0.66 93 1008.9
20260905175122 24 309 1.6 1.6 0.00 0.66 0.66 96 1009.1
20260905174617 24 351 0.0 0.0 0.00 0.66 0.66 94 1009.2
20260905174112 23 331 0.0 0.0 0.00 0.66 0.66 96 1008.9
20260905173608 23 313 1.6 1.6 0.00 0.66 0.66 97 1009.1
20260905173104 23 341 0.0 1.6 0.00 0.66 0.66 98 1009.0
20260905172603 22 339 0.0 1.6 0.00 0.66 0.66 98 1009.2
20260905172057 22 192 3.2 3.2 0.00 0.66 0.66 99 1009.2
20260905171554 22 334 0.0 0.0 0.18 0.66 0.66 99 1009.0
20260905171050 21 12 0.0 0.0 0.48 0.66 0.66 99 1009.4
20260905170546 21 8 0.0 1.6 0.30 0.64 0.64 99 1009.3
20260905170041 21 11 0.0 0.0 0.00 0.58 0.58 99 1009.6
20260905165536 21 11 0.0 0.0 0.00 0.58 0.58 99 1009.6
20260905165032 21 10 0.0 0.0 2.77 0.58 0.58 99 1009.6
20260905164526 21 337 0.0 1.6 3.17 0.58 0.58 99 1009.8
20260905164020 21 354 0.0 0.0 0.79 0.18 0.18 99 1009.8